User: anonymous
Location: Durham
(35.9940°N, 78.8990°W)
Time: 21:34:00
(UTC-04:00)
Language:

Iridium 63 - Orbit

View from above orbital plane
View from above orbital plane
View from above satellite
View from above satellite

Ground track
Ground track

The orbit data is extracted from the following two-line orbital elements,

1 25286U 98021B   14205.42157903  .00000249  00000-0  81915-4 0  8998
2 25286 086.4027 306.7269 0002231 106.8916 297.3912 14.34215589853263
Epoch (UTC): 24 July 2014 10:07:04
Eccentricity: 0.0002231
inclination: 86.4027°
perigee height: 776 km
apogee height: 779 km
right ascension of ascending node: 306.7269°
argument of perigee: 106.8916°
revolutions per day: 14.34215589
mean anomaly at epoch: 297.3912°
orbit number at epoch: 85326

The dashed part of the orbit path shows where the satellite is in the earth's shadow,  

DLR